Orbital Elements at Epoch 2459200.5 (2020-Dec-17.0) TDB
Reference: JPL 21 (heliocentric ecliptic J2000)
Element | Value | Uncertainty (1-sigma) | Units |
e | .07127781091775565 | 4.5618e-08 | |
a | 2.328518507831919 | 1.0202e-08 | au |
q | 2.16254680591218 | 1.0785e-07 | au |
i | 6.167649014606352 | 5.5085e-06 | deg |
node | 181.0066052361805 | 3.5385e-05 | deg |
peri | 302.3515630354137 | 5.0172e-05 | deg |
M | 1.695279860144272 | 3.4343e-05 | deg |
tp | 2459194.388372589236 (2020-Dec-10.88837259) | 0.00012381 | TDB |
period | 1297.830476018169 3.55 | 8.5292e-06 2.335e-08 | d yr |
n | .2773859965937187 | 1.8229e-09 | deg/d |
Q | 2.494490209751657 | 1.0929e-08 | au |
|
| | Orbit Determination Parameters
Additional Information
|